ACA8269 CYLW-CYVR

Flight info

Callsign ACA8269
Flight time N/A
Altitude 20000
Route MERYT DCT BOOTH CANUC6
Aircraft DH8D/M-SDE2E3FGRY/H

Departure

Time N/A
Airport Kelowna International Airport (CYLW)

Arrival

Time 2026-05-07 20:55
Airport Vancouver International Airport (CYVR)
Time Latitude Longitude Altitude Speed Heading
2026-05-07 20:20 50.29940 -119.85715 20043 ft 317 kts 250°
2026-05-07 20:21 50.28957 -119.88834 20045 ft 318 kts 250°
2026-05-07 20:21 50.27982 -119.91917 20042 ft 319 kts 250°
2026-05-07 20:21 50.26991 -119.95052 20041 ft 320 kts 250°
2026-05-07 20:21 50.26011 -119.98148 20038 ft 320 kts 250°
2026-05-07 20:22 50.25034 -120.01233 20036 ft 320 kts 250°
2026-05-07 20:22 50.24036 -120.04376 20039 ft 321 kts 250°
2026-05-07 20:22 50.23053 -120.07474 20042 ft 321 kts 250°
2026-05-07 20:22 50.22057 -120.10607 20044 ft 321 kts 250°
2026-05-07 20:23 50.21987 -120.10825 20045 ft 321 kts 250°
2026-05-07 20:24 50.20029 -120.16971 20041 ft 322 kts 250°
2026-05-07 20:24 50.19025 -120.20120 20046 ft 322 kts 250°
2026-05-07 20:24 50.18032 -120.23227 20045 ft 322 kts 250°
2026-05-07 20:24 50.17040 -120.26326 20043 ft 322 kts 250°
2026-05-07 20:25 50.16032 -120.29473 20042 ft 322 kts 250°
2026-05-07 20:25 50.15038 -120.32573 20041 ft 322 kts 250°
2026-05-07 20:25 50.14040 -120.35681 20041 ft 322 kts 250°
2026-05-07 20:25 50.13034 -120.38808 20048 ft 322 kts 250°
2026-05-07 20:26 50.12034 -120.41914 20046 ft 322 kts 250°
2026-05-07 20:26 50.11200 -120.44501 20042 ft 320 kts 250°
2026-05-07 20:26 50.10196 -120.47611 20050 ft 320 kts 250°
2026-05-07 20:26 50.09197 -120.50703 20042 ft 321 kts 250°
2026-05-07 20:27 50.08184 -120.53835 20041 ft 321 kts 250°
2026-05-07 20:27 50.07184 -120.56923 20044 ft 321 kts 250°
2026-05-07 20:27 50.06182 -120.60013 20040 ft 321 kts 250°
2026-05-07 20:27 50.05165 -120.63147 20037 ft 322 kts 250°
2026-05-07 20:28 50.04162 -120.66235 20041 ft 322 kts 249°
2026-05-07 20:28 50.03157 -120.69323 20043 ft 322 kts 249°
2026-05-07 20:28 50.02142 -120.72439 20043 ft 322 kts 249°
2026-05-07 20:28 50.01126 -120.75552 20040 ft 323 kts 249°
2026-05-07 20:29 50.00118 -120.78639 20035 ft 323 kts 248°
2026-05-07 20:29 49.99099 -120.81754 20033 ft 323 kts 249°
2026-05-07 20:29 49.98081 -120.84863 20033 ft 323 kts 248°
2026-05-07 20:29 49.97068 -120.87951 20028 ft 324 kts 248°
2026-05-07 20:30 49.96046 -120.91063 20029 ft 324 kts 249°
2026-05-07 20:30 49.95022 -120.94180 20031 ft 324 kts 248°
2026-05-07 20:30 49.94003 -120.97253 20028 ft 325 kts 248°
2026-05-07 20:30 49.92835 -121.00320 20027 ft 327 kts 244°
2026-05-07 20:31 49.91645 -121.03294 20039 ft 327 kts 244°
2026-05-07 20:31 49.90459 -121.06290 20042 ft 327 kts 244°
2026-05-07 20:31 49.89281 -121.09294 20043 ft 326 kts 244°
2026-05-07 20:31 49.88098 -121.12328 20052 ft 326 kts 244°
2026-05-07 20:32 49.86929 -121.15344 20056 ft 326 kts 245°
2026-05-07 20:32 49.85764 -121.18359 20051 ft 326 kts 244°
2026-05-07 20:32 49.84608 -121.21354 20054 ft 326 kts 245°
2026-05-07 20:32 49.83446 -121.24371 20054 ft 326 kts 245°
2026-05-07 20:33 49.82302 -121.27344 20056 ft 325 kts 245°
2026-05-07 20:33 49.81136 -121.30371 20055 ft 325 kts 245°
2026-05-07 20:33 49.79989 -121.33350 20058 ft 325 kts 245°
2026-05-07 20:33 49.78837 -121.36341 20056 ft 325 kts 245°
2026-05-07 20:34 49.77683 -121.39336 20053 ft 325 kts 245°
2026-05-07 20:34 49.76520 -121.42351 20049 ft 325 kts 245°
2026-05-07 20:34 49.75375 -121.45319 20049 ft 325 kts 245°
2026-05-07 20:34 49.74207 -121.48341 20055 ft 326 kts 245°
2026-05-07 20:35 49.73047 -121.51344 20065 ft 326 kts 244°
2026-05-07 20:35 49.71892 -121.54326 20065 ft 326 kts 244°
2026-05-07 20:35 49.70723 -121.57344 20059 ft 326 kts 244°
2026-05-07 20:35 49.69569 -121.60317 20056 ft 326 kts 244°
2026-05-07 20:36 49.68407 -121.63308 20059 ft 326 kts 244°
2026-05-07 20:36 49.67242 -121.66303 20055 ft 326 kts 244°
2026-05-07 20:36 49.66071 -121.69312 20010 ft 323 kts 244°
2026-05-07 20:36 49.65300 -121.71281 19970 ft 316 kts 244°
2026-05-07 20:37 49.63816 -121.75060 19862 ft 301 kts 244°
2026-05-07 20:37 49.62734 -121.77818 19399 ft 303 kts 244°
2026-05-07 20:37 49.61656 -121.80572 19067 ft 300 kts 244°
2026-05-07 20:37 49.60586 -121.83307 18680 ft 300 kts 243°
2026-05-07 20:38 49.59521 -121.86025 18341 ft 296 kts 243°
2026-05-07 20:38 49.58463 -121.88706 17707 ft 295 kts 243°
2026-05-07 20:38 49.57399 -121.91414 16976 ft 296 kts 242°
2026-05-07 20:38 49.56334 -121.94124 16267 ft 297 kts 242°
2026-05-07 20:39 49.55282 -121.96793 15790 ft 289 kts 242°
2026-05-07 20:39 49.54259 -121.99380 15417 ft 279 kts 241°
2026-05-07 20:39 49.53263 -122.01901 15091 ft 269 kts 241°
2026-05-07 20:39 49.52307 -122.04326 14780 ft 270 kts 242°
2026-05-07 20:40 49.51323 -122.06818 14494 ft 274 kts 240°
2026-05-07 20:40 49.50318 -122.09331 14154 ft 276 kts 240°
2026-05-07 20:40 49.49303 -122.11859 13816 ft 277 kts 240°
2026-05-07 20:40 49.48304 -122.14341 13509 ft 277 kts 240°
2026-05-07 20:41 49.47287 -122.16872 13210 ft 277 kts 240°
2026-05-07 20:41 49.46281 -122.19389 12869 ft 277 kts 240°
2026-05-07 20:41 49.45282 -122.21909 12573 ft 278 kts 240°
2026-05-07 20:41 49.44273 -122.24460 12240 ft 279 kts 240°
2026-05-07 20:42 49.43268 -122.26993 11947 ft 279 kts 240°
2026-05-07 20:42 49.42262 -122.29529 11635 ft 280 kts 239°
2026-05-07 20:42 49.41258 -122.32053 11268 ft 280 kts 239°
2026-05-07 20:42 49.40221 -122.34609 10945 ft 279 kts 236°
2026-05-07 20:43 49.39008 -122.36917 10634 ft 278 kts 229°
2026-05-07 20:43 49.37726 -122.39124 10325 ft 278 kts 229°
2026-05-07 20:43 49.36440 -122.41335 10010 ft 278 kts 229°
2026-05-07 20:43 49.35164 -122.43525 9700 ft 278 kts 228°
2026-05-07 20:44 49.33870 -122.45725 9370 ft 277 kts 228°
2026-05-07 20:44 49.32589 -122.47894 9036 ft 276 kts 228°
2026-05-07 20:44 49.31308 -122.50067 8728 ft 275 kts 228°
2026-05-07 20:44 49.30022 -122.52249 8394 ft 273 kts 228°
2026-05-07 20:45 49.28769 -122.54372 8093 ft 268 kts 228°
2026-05-07 20:45 49.27525 -122.56486 7797 ft 264 kts 228°
2026-05-07 20:45 49.26725 -122.57867 7608 ft 261 kts 229°
2026-05-07 20:45 49.25122 -122.60577 7179 ft 254 kts 228°
2026-05-07 20:46 49.23940 -122.62584 6900 ft 248 kts 228°
2026-05-07 20:46 49.22812 -122.64503 6608 ft 241 kts 228°
2026-05-07 20:46 49.21714 -122.66369 6335 ft 234 kts 227°
2026-05-07 20:46 49.20700 -122.68185 6091 ft 226 kts 233°
2026-05-07 20:47 49.19893 -122.70076 5847 ft 219 kts 238°
2026-05-07 20:47 49.19103 -122.72043 5597 ft 211 kts 238°
2026-05-07 20:47 49.18350 -122.73920 5352 ft 203 kts 239°
2026-05-07 20:47 49.17617 -122.75742 5122 ft 196 kts 238°
2026-05-07 20:48 49.16921 -122.77468 4896 ft 187 kts 238°
2026-05-07 20:48 49.16247 -122.79147 4726 ft 191 kts 239°
2026-05-07 20:48 49.15547 -122.80893 4506 ft 189 kts 238°
2026-05-07 20:48 49.14883 -122.82530 4486 ft 181 kts 239°
2026-05-07 20:49 49.14222 -122.84179 4520 ft 181 kts 239°
2026-05-07 20:49 49.13600 -122.85834 4465 ft 178 kts 249°
2026-05-07 20:49 49.13590 -122.87673 4018 ft 176 kts 293°
2026-05-07 20:49 49.14114 -122.89301 3713 ft 171 kts 300°
2026-05-07 20:50 49.14742 -122.90833 3415 ft 168 kts 317°
2026-05-07 20:50 49.15712 -122.91507 3194 ft 149 kts 356°
2026-05-07 20:50 49.16771 -122.91649 3129 ft 158 kts 352°
2026-05-07 20:50 49.17686 -122.92528 3023 ft 167 kts 300°
2026-05-07 20:51 49.17836 -122.94288 2950 ft 172 kts 265°
2026-05-07 20:51 49.17821 -122.96153 2755 ft 184 kts 276°
2026-05-07 20:51 49.18031 -122.98133 2454 ft 189 kts 281°
2026-05-07 20:51 49.18241 -123.00077 2130 ft 184 kts 280°
2026-05-07 20:52 49.18439 -123.01939 1837 ft 172 kts 280°
2026-05-07 20:52 49.18632 -123.03666 1580 ft 159 kts 281°
2026-05-07 20:52 49.18813 -123.05240 1386 ft 142 kts 281°
2026-05-07 20:52 49.18977 -123.06651 1193 ft 134 kts 282°
2026-05-07 20:53 49.19154 -123.08080 1067 ft 140 kts 282°
2026-05-07 20:53 49.19329 -123.09580 899 ft 149 kts 281°
2026-05-07 20:53 49.19509 -123.11166 702 ft 159 kts 281°
2026-05-07 20:53 49.19687 -123.12778 470 ft 146 kts 279°
2026-05-07 20:54 49.19854 -123.14249 284 ft 142 kts 282°
2026-05-07 20:54 49.20012 -123.15688 114 ft 129 kts 282°
2026-05-07 20:54 49.20164 -123.16968 22 ft 118 kts 279°
2026-05-07 20:54 49.20301 -123.18138 10 ft 88 kts 280°
2026-05-07 20:55 49.20351 -123.18714 10 ft 46 kts 287°
2026-05-07 20:55 49.20381 -123.19192 10 ft 30 kts 262°
2026-05-07 20:55 49.20342 -123.19409 10 ft 19 kts 250°
2026-05-07 20:55 49.20306 -123.19561 10 ft 13 kts 248°
2026-05-07 20:56 49.20243 -123.19565 10 ft 15 kts 102°
2026-05-07 20:56 49.20223 -123.19387 10 ft 19 kts 99°
2026-05-07 20:56 49.20198 -123.19172 10 ft 20 kts 100°
2026-05-07 20:56 49.20148 -123.19029 10 ft 14 kts 183°
2026-05-07 20:57 49.20017 -123.19061 10 ft 24 kts 191°
2026-05-07 20:57 49.19832 -123.19115 10 ft 25 kts 179°
2026-05-07 20:57 49.19658 -123.19156 10 ft 27 kts 190°
2026-05-07 20:57 49.19494 -123.19090 10 ft 24 kts 142°
2026-05-07 20:58 49.19364 -123.18935 10 ft 24 kts 142°
2026-05-07 20:58 49.19240 -123.18784 10 ft 21 kts 141°
2026-05-07 20:58 49.19131 -123.18654 10 ft 18 kts 141°
2026-05-07 20:58 49.19027 -123.18529 10 ft 19 kts 142°
2026-05-07 20:59 49.18948 -123.18371 10 ft 21 kts 101°
2026-05-07 20:59 49.18922 -123.18151 10 ft 18 kts 100°
2026-05-07 20:59 49.18993 -123.18055 10 ft 15 kts 10°
2026-05-07 20:59 49.19080 -123.17996 10 ft 12 kts 45°
2026-05-07 21:00 49.19127 -123.17944 10 ft 2 kts 34°
2026-05-07 21:00 49.19129 -123.17941 10 ft 0 kts 34°